Weather History for Concord, NH

Change the Weather History Date:

Thursday, September 12, 2013

  Actual Average Record
Temperature  
Mean Temperature 72 °F 62 °F  
Max Temperature 79 °F 74 °F 91 °F (1961)
Min Temperature 65 °F 49 °F 30 °F (1977)
Degree Days  
Heating Degree Days 0 5  
Month to date heating degree days 48 42  
Since 1 July heating degree days 78 90  
Cooling Degree Days 7 1  
Month to date cooling degree days 45 25  
Year to date cooling degree days 536 438  
Growing Degree Days 22 (Base 50)    
Moisture  
Dew Point 68 °F    
Average Humidity 90    
Maximum Humidity 100    
Minimum Humidity 79    
Precipitation  
Precipitation 1.30 in 0.11 in 4.12 in (1960)
Month to date precipitation 4.10 1.23  
Year to date precipitation 32.39 27.50  
Snow  
Snow 0.00 in 0.00 in 0.00 in (2002)
Month to date snowfall 0.0 0.0  
Since 1 July snowfall 0.0 0.0  
Since 1 September snowfall 0.0 0.0  
Snow Depth 0.00 in    
Sea Level Pressure  
Sea Level Pressure 29.78 in    
Wind  
Wind Speed 4 mph (South)    
Max Wind Speed 14 mph    
Max Gust Speed 20 mph    
Visibility 6 miles    
Events Fog , Rain , Thunderstorm    
T = Trace of Precipitation, MM = Missing Value Source: NWS Daily Summary

Daily Weather History Graph

Daily Weather History Graph

Search for Another Location

Airport:

Trip Planner

Search our weather history database for the weather conditions in past years. The results will help you decide how hot, cold, wet, or windy it might be!

Date:

Astronomy

Sep. 12, 2013 Rise Set
Actual Time 6:22 AM EDT 7:01 PM EDT
Civil Twilight 5:53 AM EDT 7:29 PM EDT
Nautical Twilight 5:19 AM EDT 8:03 PM EDT
Astronomical Twilight 4:44 AM EDT 8:38 PM EDT
Moon 1:57 PM EDT (9/12) 11:42 PM EDT (9/12)
Length of Visible Light 13h 35m
Length of Day
12h 38m
Waxing Crescent, 50% of the Moon is Illuminated
Sep 12
Waxing Crescent
Sep 12
First Quarter
Sep 19
Full
Sep 26
Last Quarter
Oct 4
New

Hourly Weather History & Observations

Time (EDT) Temp. Dew Point Humidity Pressure Visibility Wind Dir Wind Speed Gust Speed Precip Events Conditions
12:51 AM 68.0 °F 68.0 °F 100% 29.92 in 10.0 mi South 5.8 mph - N/A   Clear
1:51 AM 68.0 °F 66.9 °F 96% 29.92 in 10.0 mi Calm Calm - N/A   Clear
2:51 AM 68.0 °F 68.0 °F 100% 29.91 in 9.0 mi South 4.6 mph - N/A   Clear
3:51 AM 68.0 °F 68.0 °F 100% 29.92 in 7.0 mi SSE 3.5 mph - N/A   Clear
4:51 AM 68.0 °F 66.9 °F 96% 29.92 in 7.0 mi SE 3.5 mph - N/A   Scattered Clouds
5:51 AM 68.0 °F 66.0 °F 93% 29.91 in 10.0 mi Calm Calm - N/A   Mostly Cloudy
6:51 AM 66.9 °F 66.0 °F 97% 29.91 in 6.0 mi Calm Calm - N/A   Mostly Cloudy
7:51 AM 70.0 °F 66.9 °F 90% 29.90 in 10.0 mi Calm Calm - N/A   Mostly Cloudy
8:51 AM 72.0 °F 69.1 °F 91% 29.87 in 10.0 mi SSE 3.5 mph - 0.00 in   Partly Cloudy
9:51 AM 75.9 °F 70.0 °F 82% 29.86 in 10.0 mi Calm Calm - N/A   Clear
10:51 AM 79.0 °F 71.1 °F 77% 29.83 in 10.0 mi Variable 4.6 mph - N/A   Clear
11:13 AM 78.8 °F 69.8 °F 74% 29.84 in 5.0 mi Calm Calm - 0.00 in Rain , Thunderstorm Light Rain
11:43 AM 77.0 °F 71.6 °F 83% 29.82 in 9.0 mi SSE 9.2 mph - 0.00 in   Mostly Cloudy
11:51 AM 77.0 °F 72.0 °F 84% 29.81 in 8.0 mi South 9.2 mph - 0.00 in   Scattered Clouds
12:47 PM 77.0 °F 73.4 °F 89% 29.80 in 5.0 mi South 9.2 mph - 0.01 in   Scattered Clouds
12:51 PM 77.0 °F 73.0 °F 88% 29.80 in 6.0 mi SSE 10.4 mph - 0.01 in   Scattered Clouds
1:08 PM 75.2 °F 71.6 °F 89% 29.80 in 6.0 mi SSE 6.9 mph - N/A   Mostly Cloudy
1:51 PM 77.0 °F 73.0 °F 88% 29.78 in 7.0 mi SE 4.6 mph - N/A   Scattered Clouds
2:18 PM 75.2 °F 73.4 °F 94% 29.76 in 6.0 mi SSW 3.5 mph - N/A Thunderstorm Mostly Cloudy
2:51 PM 73.9 °F 73.0 °F 97% 29.76 in 4.0 mi SE 5.8 mph - 0.00 in Rain , Thunderstorm Light Rain
2:58 PM 71.6 °F 69.8 °F 94% 29.76 in 2.0 mi SE 10.4 mph 18.4 mph 0.01 in Rain , Thunderstorm Thunderstorms and Rain
3:01 PM 71.6 °F 69.8 °F 94% 29.75 in 1.2 mi SE 6.9 mph 18.4 mph 0.04 in Rain , Thunderstorm Heavy Thunderstorms and Rain
3:09 PM 69.8 °F 69.8 °F 100% 29.75 in 1.5 mi SSE 8.1 mph - 0.11 in Rain , Thunderstorm Light Thunderstorms and Rain
3:15 PM 69.8 °F 69.8 °F 100% 29.74 in 3.0 mi SSE 6.9 mph - 0.11 in Rain , Thunderstorm Light Thunderstorms and Rain
3:48 PM 69.8 °F 68.0 °F 94% 29.75 in 7.0 mi WSW 3.5 mph - 0.11 in Rain , Thunderstorm Light Rain
3:51 PM 70.0 °F 68.0 °F 93% 29.74 in 6.0 mi Variable 3.5 mph - 0.11 in Rain , Thunderstorm Light Rain
4:23 PM 69.8 °F 69.8 °F 100% 29.73 in 2.5 mi SSW 3.5 mph - 0.02 in Rain Light Rain
4:30 PM 69.8 °F 69.8 °F 100% 29.74 in 2.5 mi SSW 8.1 mph - 0.03 in Rain , Thunderstorm Light Rain
4:37 PM 69.8 °F 69.8 °F 100% 29.73 in 4.0 mi SSE 4.6 mph - 0.04 in Rain , Thunderstorm Light Rain
4:51 PM 70.0 °F 68.0 °F 93% 29.74 in 5.0 mi Calm Calm - 0.05 in Rain , Thunderstorm Light Thunderstorms and Rain
5:03 PM 69.8 °F 68.0 °F 94% 29.75 in 1.5 mi West 9.2 mph - 0.00 in Rain , Thunderstorm Heavy Thunderstorms and Rain
5:07 PM 68.0 °F 68.0 °F 100% 29.74 in 0.8 mi West 8.1 mph - 0.06 in Rain , Thunderstorm Heavy Thunderstorms and Rain
5:15 PM 68.0 °F 68.0 °F 100% 29.71 in 0.2 mi WNW 8.1 mph 19.6 mph 0.22 in Fog , Rain , Thunderstorm Heavy Thunderstorms and Rain
5:25 PM 68.0 °F 66.2 °F 94% 29.74 in 1.2 mi SSW 6.9 mph - 0.52 in Rain , Thunderstorm Light Thunderstorms and Rain
5:27 PM 68.0 °F 66.2 °F 94% 29.74 in 4.0 mi South 6.9 mph - 0.52 in Rain , Thunderstorm Light Thunderstorms and Rain
5:42 PM 68.0 °F 66.2 °F 94% 29.72 in 1.8 mi Variable 3.5 mph - 0.56 in Rain , Thunderstorm Thunderstorms and Rain
5:49 PM 68.0 °F 66.2 °F 94% 29.73 in 3.0 mi SSW 6.9 mph - 0.58 in Rain , Thunderstorm Light Rain
5:51 PM 68.0 °F 66.0 °F 93% 29.73 in 3.0 mi South 6.9 mph - 0.58 in Rain , Thunderstorm Light Rain
5:59 PM 66.2 °F 66.2 °F 100% 29.72 in 2.5 mi SW 4.6 mph - 0.02 in Rain Rain
6:09 PM 68.0 °F 66.2 °F 94% 29.72 in 5.0 mi SSW 4.6 mph - 0.03 in Rain , Thunderstorm Light Thunderstorms and Rain
6:30 PM 66.2 °F 66.2 °F 100% 29.72 in 4.0 mi Variable 3.5 mph - 0.05 in Rain Light Rain
6:51 PM 66.9 °F 66.9 °F 100% 29.71 in 4.0 mi Calm Calm - 0.07 in Rain Light Rain
7:26 PM 66.2 °F 66.2 °F 100% 29.70 in 1.8 mi Calm Calm - 0.08 in Rain Heavy Rain
7:34 PM 66.2 °F 66.2 °F 100% 29.70 in 3.0 mi Calm Calm - 0.15 in Rain Light Rain
7:43 PM 66.2 °F 66.2 °F 100% 29.70 in 1.8 mi Calm Calm - 0.17 in Rain Heavy Rain
7:51 PM 66.9 °F 66.9 °F 100% 29.71 in 2.5 mi SSE 4.6 mph - 0.21 in Rain , Thunderstorm Thunderstorms and Rain
7:59 PM 66.2 °F 66.2 °F 100% 29.71 in 4.0 mi ESE 3.5 mph - 0.01 in Rain , Thunderstorm Thunderstorms and Rain
8:21 PM 66.2 °F 66.2 °F 100% 29.72 in 9.0 mi WNW 3.5 mph - 0.03 in Rain Light Rain
8:51 PM 66.9 °F 66.9 °F 100% 29.70 in 4.0 mi Calm Calm - 0.07 in Rain Light Rain
9:51 PM 66.0 °F 66.0 °F 100% 29.69 in 10.0 mi SE 3.5 mph - 0.03 in   Overcast
10:51 PM 66.0 °F 66.0 °F 100% 29.69 in 4.0 mi SE 4.6 mph - 0.03 in Rain Rain
11:34 PM 66.2 °F 66.2 °F 100% 29.69 in 7.0 mi SSE 5.8 mph - 0.09 in Rain Light Rain
11:51 PM 66.0 °F 66.0 °F 100% 29.67 in 6.0 mi SSE 5.8 mph - 0.11 in Rain Light Rain